Date String (YYYY-MM-DD hh:mm:ss) UTC,Instrument flags,Ambient pressure (hPa),Sample flow (lpm),Bypass flow (lpm),Sample temperature (°C),Ambient temperature (°C),ASC tube jacket temperature (°C),LED temperature (°C),Box temperature (°C),Sample RH (%),Span deviation,Mass concentration (μg/m³),Mass concentration (μg/m³),Mass concentration (μg/m³)
DateTimeUTC,F1_M11,P_M11,Q1_M11,Q2_M11,T1_M11,T2_M11,T3_M11,T4_M11,T5_M11,U1_M11,ZSPAN_M11,X0_M11,X2_M11,X1_M11
2022-10-17 11:00:00,,0833.3,4.99,0.00,25.0,23.3,00.0,33.9,26.8,13.2,0000.0,0007.20,0004.78,0004.42
2022-10-17 11:01:00,,0833.3,5.01,0.00,25.0,23.3,00.0,33.9,26.7,13.2,0000.0,0007.01,0004.73,0004.39
2022-10-17 11:02:00,,0833.4,4.99,0.00,25.0,23.3,00.0,33.9,26.7,13.3,0000.0,0007.10,0004.69,0004.34
2022-10-17 11:03:00,,0833.4,5.02,0.00,24.9,23.3,00.0,33.9,26.7,13.3,0000.0,0007.55,0004.67,0004.31
2022-10-17 11:04:00,,0833.4,4.99,0.00,24.9,23.3,00.0,33.9,26.8,13.2,0000.0,0007.56,0004.64,0004.27
2022-10-17 11:05:00,,0833.4,5.02,0.00,24.9,23.3,00.0,33.9,26.7,13.2,0000.0,0007.54,0004.63,0004.26
2022-10-17 11:06:00,,0833.4,4.99,0.00,24.9,23.3,00.0,33.9,26.7,13.2,0000.0,0007.54,0004.63,0004.26
2022-10-17 11:07:00,,0833.4,5.01,0.00,24.9,23.2,00.0,33.8,26.7,13.2,0000.0,0008.00,0004.63,0004.26
2022-10-17 11:08:00,,0833.4,4.98,0.00,24.9,23.2,00.0,33.8,26.7,13.3,0000.0,0008.12,0004.62,0004.28
2022-10-17 11:09:00,,0833.4,5.02,0.00,24.9,23.2,00.0,33.8,26.7,13.4,0000.0,0008.16,0004.65,0004.30
2022-10-17 11:10:00,,0833.4,4.99,0.00,24.9,23.2,00.0,33.8,26.6,13.4,0000.0,0008.32,0004.70,0004.33
2022-10-17 11:11:00,,0833.4,5.01,0.00,24.9,23.2,00.0,33.8,26.6,13.4,0000.0,0008.48,0004.70,0004.35
2022-10-17 11:12:00,,0833.4,4.99,0.00,24.9,23.2,00.0,33.8,26.6,13.3,0000.0,0008.45,0004.69,0004.35
2022-10-17 11:13:00,,0833.4,5.02,0.00,24.9,23.2,00.0,33.8,26.6,13.3,0000.0,0008.44,0004.70,0004.36
2022-10-17 11:14:00,,0833.4,4.99,0.00,24.8,23.2,00.0,33.8,26.6,13.3,0000.0,0008.29,0004.73,0004.36
2022-10-17 11:15:00,,0833.4,5.01,0.00,24.8,23.2,00.0,33.8,26.6,13.4,0000.0,0008.44,0004.75,0004.37
2022-10-17 11:16:00,,0833.4,4.99,0.00,24.8,23.2,00.0,33.8,26.6,13.3,0000.0,0008.74,0004.77,0004.38
2022-10-17 11:17:00,,0833.4,5.01,0.00,24.8,23.2,00.0,33.7,26.6,13.4,0000.0,0009.00,0004.79,0004.40
2022-10-17 11:18:00,,0833.4,4.99,0.00,24.8,23.1,00.0,33.7,26.6,13.3,0000.0,0008.66,0004.77,0004.41
2022-10-17 11:19:00,,0833.4,5.01,0.00,24.8,23.1,00.0,33.7,26.6,13.3,0000.0,0008.41,0004.78,0004.41
2022-10-17 11:20:00,,0833.5,4.99,0.00,24.8,23.2,00.0,33.7,26.6,13.3,0000.0,0008.58,0004.76,0004.41
2022-10-17 11:21:00,,0833.4,5.00,0.00,24.8,23.2,00.0,33.7,26.6,13.3,0000.0,0008.80,0004.74,0004.40
2022-10-17 11:22:00,,0833.4,4.99,0.00,24.8,23.1,00.0,33.7,26.6,13.3,0000.0,0008.70,0004.78,0004.41
2022-10-17 11:23:00,,0833.4,5.01,0.00,24.8,23.1,00.0,33.7,26.6,13.3,0000.0,0008.80,0004.83,0004.41
2022-10-17 11:24:00,,0833.4,4.98,0.00,24.8,23.1,00.0,33.7,26.6,13.2,0000.0,0009.10,0004.83,0004.40
2022-10-17 11:25:00,,0833.4,5.02,0.00,24.7,23.1,00.0,33.7,26.5,13.2,0000.0,0009.10,0004.79,0004.40
2022-10-17 11:26:00,,0833.4,4.98,0.00,24.7,23.1,00.0,33.7,26.5,13.2,0000.0,0008.94,0004.79,0004.41
2022-10-17 11:27:00,,0833.4,5.02,0.00,24.7,23.1,00.0,33.7,26.6,13.2,0000.0,0008.95,0004.78,0004.40
2022-10-17 11:28:00,,0833.3,4.99,0.00,24.7,23.1,00.0,33.7,26.5,13.2,0000.0,0009.08,0004.80,0004.39
2022-10-17 11:29:00,,0833.3,5.01,0.00,24.7,23.1,00.0,33.7,26.5,13.2,0000.0,0009.01,0004.82,0004.39
2022-10-17 11:30:00,,0833.3,5.00,0.00,24.7,23.1,00.0,33.6,26.5,13.2,0000.0,0009.07,0004.83,0004.38
2022-10-17 11:31:00,,0833.3,5.00,0.00,24.7,23.1,00.0,33.6,26.5,13.3,0000.0,0008.97,0004.84,0004.38
2022-10-17 11:32:00,,0833.3,5.00,0.00,24.7,23.0,00.0,33.6,26.4,13.3,0000.0,0008.67,0004.82,0004.37
2022-10-17 11:33:00,,0833.3,5.00,0.00,24.7,23.0,00.0,33.6,26.4,13.3,0000.0,0008.65,0004.78,0004.36
2022-10-17 11:34:00,,0833.3,5.00,0.00,24.7,23.0,00.0,33.6,26.4,13.3,0000.0,0008.67,0004.75,0004.36
2022-10-17 11:35:00,,0833.3,5.00,0.00,24.7,23.0,00.0,33.6,26.5,13.3,0000.0,0008.71,0004.73,0004.36
2022-10-17 11:36:00,,0833.3,4.99,0.00,24.7,23.0,00.0,33.6,26.5,13.3,0000.0,0008.52,0004.72,0004.36
2022-10-17 11:37:00,,0833.3,5.01,0.00,24.7,23.0,00.0,33.6,26.5,13.5,0000.0,0008.79,0004.73,0004.36
2022-10-17 11:38:00,,0833.2,5.00,0.00,24.7,23.0,00.0,33.6,26.5,13.7,0000.0,0008.68,0004.74,0004.39
2022-10-17 11:39:00,,0833.3,5.01,0.00,24.7,23.0,00.0,33.6,26.5,13.7,0000.0,0008.29,0004.75,0004.43
2022-10-17 11:40:00,,0833.3,4.99,0.00,24.6,23.0,00.0,33.6,26.4,13.8,0000.0,0008.29,0004.77,0004.47
2022-10-17 11:41:00,,0833.4,5.00,0.00,24.6,23.0,00.0,33.6,26.4,14.0,0000.0,0008.36,0004.82,0004.52
2022-10-17 11:42:00,,0833.4,5.00,0.00,24.6,23.0,00.0,33.5,26.4,14.0,0000.0,0008.34,0004.86,0004.57
2022-10-17 11:43:00,,0833.4,5.00,0.00,24.6,23.0,00.0,33.5,26.4,14.0,0000.0,0008.35,0004.90,0004.62
2022-10-17 11:44:00,,0833.4,5.02,0.00,24.6,22.9,00.0,33.5,26.3,13.9,0000.0,0008.48,0004.96,0004.67
2022-10-17 11:45:00,,0833.4,4.99,0.00,24.6,22.9,00.0,33.5,26.3,14.0,0000.0,0008.64,0005.00,0004.71
2022-10-17 11:46:00,,0833.4,5.01,0.00,24.6,22.9,00.0,33.5,26.3,14.0,0000.0,0008.40,0005.04,0004.74
2022-10-17 11:47:00,,0833.4,5.00,0.00,24.6,22.9,00.0,33.5,26.4,14.0,0000.0,0008.29,0005.08,0004.79
2022-10-17 11:48:00,,0833.4,5.00,0.00,24.6,22.9,00.0,33.5,26.4,14.0,0000.0,0008.37,0005.16,0004.83
2022-10-17 11:49:00,,0833.4,5.01,0.00,24.6,22.9,00.0,33.5,26.4,14.0,0000.0,0008.21,0005.21,0004.86
2022-10-17 11:50:00,,0833.3,4.98,0.00,24.6,22.9,00.0,33.5,26.4,14.0,0000.0,0008.31,0005.23,0004.87
2022-10-17 11:51:00,,0833.3,5.02,0.00,24.6,22.9,00.0,33.5,26.4,14.0,0000.0,0008.39,0005.26,0004.87
2022-10-17 11:52:00,,0833.3,4.99,0.00,24.5,22.9,00.0,33.5,26.4,13.9,0000.0,0008.40,0005.27,0004.87
2022-10-17 11:53:00,,0833.3,5.01,0.00,24.5,22.9,00.0,33.5,26.4,13.9,0000.0,0008.47,0005.29,0004.87
2022-10-17 11:54:00,,0833.3,4.99,0.00,24.5,22.9,00.0,33.5,26.3,13.9,0000.0,0008.42,0005.28,0004.87
2022-10-17 11:55:00,,0833.4,5.00,0.00,24.5,22.9,00.0,33.4,26.3,13.9,0000.0,0008.57,0005.29,0004.86
2022-10-17 11:56:00,,0833.4,4.99,0.00,24.5,22.9,00.0,33.4,26.3,13.9,0000.0,0008.49,0005.26,0004.85
2022-10-17 11:57:00,,0833.4,5.00,0.00,24.5,22.8,00.0,33.4,26.3,14.0,0000.0,0008.40,0005.26,0004.86
2022-10-17 11:58:00,,0833.4,5.00,0.00,24.5,22.8,00.0,33.4,26.3,14.0,0000.0,0008.44,0005.28,0004.87
2022-10-17 11:59:00,,0833.4,5.01,0.00,24.5,22.8,00.0,33.4,26.3,14.0,0000.0,0008.44,0005.27,0004.87
